Change the Weather History Date:

Monday, April 22, 2013

  Actual Average (LIPA) Record (LIPA)
Temperature  
Mean Temperature 56 °F -  
Max Temperature 59 °F 63 °F 73 °F (2002)
Min Temperature 53 °F 46 °F 39 °F (1997)
Degree Days  
Heating Degree Days 8    
Growing Degree Days 6 (Base 50)    
Moisture  
Dew Point 52 °F    
Average Humidity 86    
Maximum Humidity 95    
Minimum Humidity 68    
Precipitation  
Precipitation 0.38 in - - ()
Sea Level Pressure  
Sea Level Pressure 29.94 in    
Wind  
Wind Speed 6 mph ()    
Max Wind Speed 12 mph    
Max Gust Speed -    
Visibility 5.9 miles    
Events Rain    
Averages and records for this station are not official NWS values.
T = Trace of Precipitation, MM = Missing Value Source: Averaged Metar Reports

Daily Weather History Graph

Daily Weather History Graph

Search for Another Location

Airport or City:

Trip Planner

Search our weather history database for the weather conditions in past years. The results will help you decide how hot, cold, wet, or windy it might be!

Date:

Astronomy

Apr. 22, 2013 Rise Set
Actual Time 6:11 AM CEST 8:05 PM CEST
Civil Twilight 5:39 AM CEST 8:38 PM CEST
Nautical Twilight 4:59 AM CEST 9:17 PM CEST
Astronomical Twilight 4:16 AM CEST 10:00 PM CEST
Moon 4:26 PM CEST (4/22) 4:08 AM CEST (4/22)
Length of Visible Light 14h 58m
Length of Day
13h 54m
Waxing Gibbous, 86% of the Moon is Illuminated
Apr 22
Waxing Gibbous
Apr 25
Full
May 2
Last Quarter
May 10
New
May 18
First Quarter

Hourly Weather History & Observations

Time (CEST) Temp. Dew Point Humidity Pressure Visibility Wind Dir Wind Speed Gust Speed Precip Events Conditions
12:58 AM 55.4 °F 51.1 °F 85% 29.92 in 6.2 mi NE 2.3 mph - N/A   Scattered Clouds
1:58 AM 54.9 °F 50.2 °F 84% 29.91 in 6.2 mi North 2.3 mph - N/A   Overcast
2:58 AM 55.2 °F 52.3 °F 90% 29.91 in 6.2 mi SSW 4.6 mph - N/A   Overcast
3:58 AM 54.5 °F 52.9 °F 94% 29.92 in 6.2 mi WSW 8.1 mph - N/A   Mostly Cloudy
4:58 AM 54.1 °F 52.3 °F 94% 29.92 in 6.2 mi SE 5.8 mph - N/A   Overcast
5:19 AM 53.6 °F 50.0 °F 88% 29.92 in 6.2 mi SSE 6.9 mph - N/A Rain Light Rain
5:42 AM 53.6 °F 51.8 °F 94% 29.93 in 6.2 mi NNW 6.9 mph - N/A Rain Light Rain
5:58 AM 53.2 °F 51.3 °F 93% 29.93 in 6.2 mi NW 4.6 mph - 0.01 in Rain Light Rain
6:47 AM 53.6 °F 51.8 °F 94% 29.91 in 6.2 mi NE 9.2 mph - N/A   Partly Cloudy
6:58 AM 54.0 °F 51.6 °F 92% 29.92 in 6.2 mi NE 10.4 mph - 0.01 in   Scattered Clouds
7:06 AM 55.4 °F 51.8 °F 88% 29.90 in 6.2 mi NE 10.4 mph - N/A   Light Drizzle
7:15 AM 55.4 °F 50.0 °F 82% 29.90 in 6.2 mi NNE 11.5 mph - N/A   Mostly Cloudy
7:58 AM 57.0 °F 49.5 °F 76% 29.91 in 6.2 mi NE 8.1 mph - 0.00 in   Overcast
8:58 AM 58.8 °F 49.8 °F 72% 29.91 in 6.2 mi ENE 9.2 mph - N/A   Mostly Cloudy
9:15 AM 60.8 °F 50.0 °F 68% 29.91 in 6.2 mi ESE 6.9 mph - N/A   Light Drizzle
9:58 AM 56.5 °F 52.5 °F 87% 29.94 in 6.2 mi ENE 3.5 mph - 0.03 in Rain Light Rain
10:11 AM 57.2 °F 53.6 °F 88% 29.94 in 6.2 mi NNW 4.6 mph - N/A   Mostly Cloudy
10:25 AM 57.2 °F 53.6 °F 88% 29.95 in 6.2 mi SSE 3.5 mph - N/A   Light Drizzle
10:52 AM 53.6 °F 51.8 °F 94% 29.96 in 2.5 mi East 9.2 mph - N/A Rain Heavy Rain
10:55 AM 53.6 °F 51.8 °F 94% 29.96 in 3.1 mi East 6.9 mph - N/A Rain Heavy Rain
10:58 AM 53.6 °F 51.8 °F 94% 29.97 in 3.1 mi East 4.6 mph - 0.07 in Rain Heavy Rain
11:58 AM 54.3 °F 53.1 °F 95% 29.97 in 5.0 mi NE 8.1 mph - 0.11 in Rain Light Rain
12:58 PM 56.1 °F 52.2 °F 87% 29.96 in 6.2 mi NE 9.2 mph - 0.06 in Rain Light Rain
1:58 PM 57.2 °F 52.2 °F 83% 29.95 in 6.2 mi North 10.4 mph - 0.03 in Rain Light Rain
1:59 PM 57.2 °F 51.8 °F 82% 29.94 in 6.2 mi North 9.2 mph - N/A   Partly Cloudy
2:04 PM 59.0 °F 51.8 °F 77% 29.94 in 6.2 mi NNE 9.2 mph - N/A   Light Drizzle
2:13 PM 59.0 °F 51.8 °F 77% 29.94 in 6.2 mi NNE 10.4 mph - N/A   Partly Cloudy
2:41 PM 59.0 °F 50.0 °F 72% 29.93 in 6.2 mi NNE 8.1 mph - N/A   Light Drizzle
2:58 PM 59.7 °F 50.9 °F 73% 29.95 in 6.2 mi East 5.8 mph - 0.00 in Rain Light Rain
3:58 PM 56.8 °F 52.9 °F 87% 29.95 in 6.2 mi NE 10.4 mph - 0.04 in Rain Light Rain
4:11 PM 57.2 °F 53.6 °F 88% 29.94 in 6.2 mi NE 10.4 mph - N/A   Mostly Cloudy
4:12 PM 57.2 °F 53.6 °F 88% 29.94 in 6.2 mi NE 10.4 mph - N/A   Light Drizzle
4:58 PM 56.5 °F 52.0 °F 85% 29.94 in 6.2 mi NNE 10.4 mph - 0.02 in Rain Light Rain
5:35 PM 57.2 °F 51.8 °F 82% 29.93 in 6.2 mi NE 6.9 mph - N/A   Overcast
6:01 PM 57.2 °F 51.8 °F 82% 29.93 in 6.2 mi NNE 5.8 mph - N/A   Light Drizzle
6:11 PM 57.2 °F 51.8 °F 82% 29.93 in 6.2 mi ENE 6.9 mph - N/A   Overcast
6:58 PM 57.0 °F 50.2 °F 78% 29.95 in 6.2 mi NE 10.4 mph - 0.00 in   Overcast
7:58 PM 57.2 °F 51.1 °F 80% 29.98 in 6.2 mi SW 5.8 mph - N/A   Overcast
8:58 PM 54.0 °F 52.0 °F 93% 30.00 in 6.2 mi NNE 3.5 mph - N/A   Mostly Cloudy
9:58 PM 54.1 °F 52.5 °F 94% 30.01 in 6.2 mi NE 4.6 mph - N/A   Overcast
10:58 PM 54.7 °F 50.2 °F 85% 30.03 in 6.2 mi NE 5.8 mph - N/A   Overcast
11:58 PM 54.1 °F 51.1 °F 89% 30.04 in 6.2 mi North 6.9 mph - N/A   Overcast